Simultaneous Nadir Overpasses (SNOs) Predictions

Prediction of SNOs between FY3D and AQUA Satellite Orbit:

Table of predicted SNOs for the next 14.0 days since TLE Epoch: 9/25/2021
Index Date (FY3D) Time (FY3D) Lat,Lon (FY3D) SZA (FY3D ) Date (AQUA) Time (AQUA) Lat,Lon (AQUA) SZA (AQUA ) Distance(km) Time Diff (sec)
1 09/25/2021 09:42:05 -67.19,-141.77 111.79 09/25/2021 09:42:42 -67.19,-141.75 111.79 0.80 37
2 09/25/2021 10:31:32 62.82, 29.89 64.15 09/25/2021 10:30:53 62.81, 29.93 64.13 2.05 39
3 09/28/2021 01:58:28 -67.47, -26.16 110.47 09/28/2021 01:59:17 -67.48, -26.20 110.46 1.65 49
4 09/28/2021 02:47:55 63.11, 145.59 65.47 09/28/2021 02:47:28 63.11, 145.57 65.46 1.16 27
5 09/30/2021 18:15:06 -68.56, 88.41 108.39 09/30/2021 18:16:06 -68.56, 88.42 108.38 0.29 60
6 09/30/2021 19:04:37 64.46, -99.69 67.77 09/30/2021 19:04:21 64.46, -99.69 67.77 0.22 16
7 10/03/2021 10:31:40 -69.43,-156.84 106.51 10/03/2021 10:32:51 -69.42,-156.81 106.51 1.56 71
8 10/03/2021 11:21:14 65.52, 15.21 69.81 10/03/2021 11:21:09 65.52, 15.22 69.81 0.27 5
9 10/06/2021 02:54:02 -80.84,-125.65 86.62 10/06/2021 02:55:15 -81.47,-126.78 86.37 72.68 73
10 10/06/2021 03:37:46 66.37, 130.26 71.64 10/06/2021 03:37:52 66.36, 130.27 71.64 0.25 6
11 10/06/2021 04:26:59 -61.43, -57.87 112.89 10/06/2021 04:25:51 -61.43, -57.86 112.92 0.17 68
12 10/08/2021 19:54:16 67.04,-114.56 73.31 10/08/2021 19:54:33 67.04,-114.56 73.31 0.38 17



Historial Predications of SNOs between FY3D and AQUA
